Location: Peebles
(55.6412°N, 3.1714°W)
Time: 06:31:38
(UTC+01:00)

FENGYUN 1C DEB - Pass Details

Date: 03 July 2022
Orbit: 749 x 887 km, 98.1° (Epoch: 14 August)

Event Time Altitude Azimuth Distance (km) Brightness Sun altitude
Rises 01:45:12 0° 18° (NNE) 3,510 ? -11.2°
Reaches altitude 10° 01:47:50 10° 27° (NNE) 2,566 ? -11.1°
Maximum altitude 01:53:07 37° 94° (E) 1,359 ? -11.0°
Drops below altitude 10° 01:58:17 10° 160° (SSE) 2,514 ? -10.9°
Enters shadow 01:58:19 10° 161° (SSE) 2,527 ? -10.9°
